Regional Weather Roundup
Issued by NWS

Home | Current Version | Previous Version | Graphics & Text | Print | Product List | Glossary On
Versions: 1 2 3 4 5 6 7 8 9 10 11 12 13 14 15 16 17 18 19 20 21 22 23 24 25 26 27 28 29 30 31 32 33 34 35 36 37 38 39 40 41 42 43 44 45 46 47 48 49 50
000
ASUS43 KMPX 292110
RWRMN
WEATHER ROUNDUP FOR MINNESOTA
NATIONAL WEATHER SERVICE TWIN CITIES/CHANHASSEN MN
400 PM CDT FRI AUG 29 2014


NOTE: "FAIR" INDICATES FEW OR NO CLOUDS BELOW 12,000 FEET WITH NO
SIGNIFICANT WEATHER AND/OR OBSTRUCTIONS TO VISIBILITY. N/A MEANS
CURRENT SKY AND/OR WEATHER CONDITIONS ARE NOT AVAILABLE.

MNZ060>063-068>070-292200-
   Twin Cities Metro

CITY           SKY/WX    TMP DP  RH WIND       PRES   REMARKS
TWIN CITIES    PTSUNNY   77  70  79 N7        29.73F
ST PAUL        PTSUNNY   77  70  79 NE5       29.72F
CRYSTAL        PTSUNNY   72  67  84 CALM      29.72F
BLAINE         PTSUNNY   72  70  94 CALM      29.72F
LAKEVILLE      PTSUNNY   79  70  73 W5        29.74R
EDEN PRAIRIE   CLOUDY    78  70  76 VRB3      29.72F
SOUTH ST PAUL  PTSUNNY   80  69  69 SW5       29.72F
LAKE ELMO      PTSUNNY   75  70  83 E5        29.74F
$$
MNZ001>005-007-008-013>017-022>024-027-028-292200-
   Northwest Minnesota

CITY           SKY/WX    TMP DP  RH WIND       PRES   REMARKS
BEMIDJI        CLOUDY    69  64  84 CALM      29.77S
HALLOCK        MOSUNNY   64  61  88 N13G26    29.79R
ROSEAU         CLOUDY    64  61  88 NW5       29.77S
WARROAD        CLOUDY    66  63  88 W6        29.77F
THIEF RVR FALL CLOUDY    66  64  94 W8        29.77S
CROOKSTON      DRIZZLE   70  64  83 CALM      29.77S
FOSSTON        CLOUDY    68  63  83 W8        29.78S
DETROIT LAKES  CLOUDY    70  64  83 W7        29.78F
MOORHEAD       PTSUNNY   73  70  88 CALM      29.76F
PARK RAPIDS    CLOUDY    71  65  81 W3        29.77S
MAHNOMEN       CLOUDY    69  65  88 W8        29.77F
$$
MNZ006-009>011-018-025>026-292200-
   North Central Minnesota

CITY           SKY/WX    TMP DP  RH WIND       PRES   REMARKS
BAUDETTE       CLOUDY    68  64  87 SW3       29.75F
FLAG ISLAND    TSTM      63  61  94 NW8       29.75F
INTL FALLS     CLOUDY    68  62  81 CALM      29.76S
WASKISH        CLOUDY    70  66  88 CALM      29.76S
BIG FORK       CLOUDY    66  63  88 CALM      29.78S
LONGVILLE      CLOUDY    68  64  88 CALM      29.77S
GRAND RAPIDS   CLOUDY    64  61  88 CALM      29.77F
CRANE LAKE     CLOUDY    63  61  94 CALM      29.78F
ORR            CLOUDY    64  59  82 CALM      29.75F
COOK           CLOUDY    64  61  88 CALM      29.77F
WALKER         CLOUDY    67  64  90 CALM      29.77S
$$
MNZ012-019>021-037-292200-
   Northeast Minnesota

CITY           SKY/WX    TMP DP  RH WIND       PRES   REMARKS
DULUTH         LGT RAIN  64  61  90 NE5       29.75F FOG
ELY            CLOUDY    63  59  88 CALM      29.77F
HIBBING        CLOUDY    66  61  84 CALM      29.78S
EVELETH        CLOUDY    63  61  94 CALM      29.78F
DULUTH HARBOR  DRIZZLE   63  61  94 NE12      29.74F
TWO HARBORS    DRIZZLE   61  55  82 E3        29.75F
SILVER BAY     RAIN      59  59 100 E5        29.76S
GRAND MARAIS     N/A     60  59  96 NE8       29.77F
G MARAIS ARPRT RAIN      57  54  88 E6        29.80F
$$
MNZ029>031-032-039>041-046>048-054>057-064-292200-
   West Central Minnesota

CITY           SKY/WX    TMP DP  RH WIND       PRES   REMARKS
FERGUS FALLS   CLOUDY    72  66  83 N7        29.76S
WHEATON        MOSUNNY   72  64  78 N9        29.78R
MORRIS         MOSUNNY   77  66  69 CALM      29.75F
ALEXANDRIA     CLOUDY    72  66  81 CALM      29.78S
ELBOW LAKE     CLOUDY    71  66  84 NW7       29.77S
WADENA         CLOUDY    70  64  83 CALM      29.76F
GLENWOOD       PTSUNNY   72  66  83 N6        29.78S
APPLETON       MOSUNNY   77  64  65 W5        29.75S
BENSON         PTSUNNY   75  66  73 N3        29.76S
ORTONVILLE     MOSUNNY   77  66  69 NE3       29.76S
MADISON        PTSUNNY   77  68  73 NW3       29.76S
WILLMAR        PTSUNNY   73  66  78 CALM      29.78R
$$
MNZ033>034-036-042>043-049>051-058-059-292200-
   Central Minnesota

CITY           SKY/WX    TMP DP  RH WIND       PRES   REMARKS
ST CLOUD       CLOUDY    73  66  78 CALM      29.74F
SAUK CENTRE    CLOUDY    71  66  84 CALM      29.77S
PAYNESVILLE    HVY RAIN  69  66  90 W5        29.77S
AITKIN         CLOUDY    70  64  83 NW3       29.74F
PINE RIVER     CLOUDY    68  66  94 CALM      29.80F
BRAINERD       CLOUDY    69  65  86 VRB3      29.76F
STAPLES        CLOUDY    70  64  83 W6        29.77S
LONG PRAIRIE   CLOUDY    70  64  83 CALM      29.78S
LITTLE FALLS   CLOUDY    66  64  94 CALM      29.77S
LITCHFIELD     LGT RAIN  73  72  94 CALM      29.76S
BUFFALO        LGT RAIN  71  68  90 CALM      29.74F
MAPLE LAKE     LGT RAIN  71  70  95 CALM      29.75S
$$
MNZ037-044-045-052-053-292200-
   East Central Minnesota

CITY           SKY/WX    TMP DP  RH WIND       PRES   REMARKS
PRINCETON      CLOUDY    72  70  94 W3        29.74F
MORA           CLOUDY    64  64 100 W6        29.76S
CAMBRIDGE      LGT RAIN  72  63  73 S3        29.72F
RUSH CITY      CLOUDY    68  66  94 CALM      29.73F
MOOSE LAKE     LGT RAIN  68  66  94 CALM      29.70F
HINCKLEY       CLOUDY    70  70 100 SW7       29.74R
CLOQUET        LGT RAIN  64  64 100 CALM      29.74F VSB 1
MCGREGOR       CLOUDY    66  64  94 NW7       29.75F
$$
MNZ071>073-080-081-089-090-097-098-292200-
   Southwest Minnesota

CITY           SKY/WX    TMP DP  RH WIND       PRES   REMARKS
MONTEVIDEO     CLOUDY    73  73 100 N5        29.77S
GRANITE FALLS  CLOUDY    72  69  91 W6        29.77S
CANBY          CLOUDY    73  68  82 CALM      29.77F
MARSHALL       CLOUDY    72  66  83 NW3       29.77S
REDWOOD FALLS  LGT RAIN  69  68  96 W3        29.76R
OLIVIA         CLOUDY    73  70  88 CALM      29.75S
PIPESTONE      LGT RAIN  70  64  83 CALM      29.79S
WINDOM         RAIN      72  68  88 SW8       29.79R
WORTHINGTON    CLOUDY    70  70 100 SW7       29.81S
JACKSON        LGT RAIN  72  68  88 SW9       29.79F
TRACY          RAIN      71  69  95 CALM      29.77F
SLAYTON        CLOUDY    72  68  87 CALM      29.80S
$$
MNZ065>067-074>077-082>085-091>093-292200-
   South Central Minnesota

CITY           SKY/WX    TMP DP  RH WIND       PRES   REMARKS
MANKATO        PTSUNNY   79  68  69 SW10      29.75S
NEW ULM        PTSUNNY   75  73  94 SW5       29.75R
ST JAMES       CLOUDY    77  70  78 S8        29.77S
FAIRMONT       CLOUDY    72  66  83 W8        29.76F
GLENCOE        CLOUDY    76  69  77 SW5       29.74F
FARIBAULT      PTSUNNY   84  66  54 S9        29.75S
OWATONNA       PTSUNNY   82  70  65 SW10      29.75F
WASECA         PTSUNNY   77  63  61 SW13      29.77S
ALBERT LEA     PTSUNNY   81  70  69 SW8       29.75F
$$
MNZ078>079-086>088-094>096-292200-
   Southeast Minnesota

CITY           SKY/WX    TMP DP  RH WIND       PRES   REMARKS
ROCHESTER      PTSUNNY   76  69  79 S8        29.77F
RED WING       PTSUNNY   75  70  83 E7        29.71F
STANTON        PTSUNNY   83  69  62 SW9       29.72F
DODGE CENTER   PTSUNNY   81  70  69 SW12      29.75F
WINONA         MOSUNNY   82  70  65 S3        29.73F
AUSTIN         PTSUNNY   79  66  65 W8G17     29.76S
PRESTON        CLOUDY    80  73  78 SW3       29.77S THUNDER
$$
ABBREVIATIONS USED IN REMARKS
   TC - TEMPERATURES IN CELSIUS
  WCI - WIND CHILL INDEX
   HX - HEAT INDEX
  VSB - VISIBILITY
$$



USA.gov is the U.S. government's official web portal to all federal, state and local government web resources and services.